Volver al catálogo

LKW-4

ActivoCienciaPO
NORAD 43236·PAYLOAD·🇨🇳 China

Lanzado Mar 17, 2018 desde Jiuquan Satellite Launch Center

Loading…

Próximos Pases (próximas 24 horas)

TLE

ActualizadoSource: Space-Track

Época: Sep 14, 2026, 12:57 UTC

1 43236U 18025A   26257.54016240  .00051672  00000-0  43019-3 0  9999
2 43236  97.6370  75.9691 0001978 338.4482  21.6696 15.69975753474019

Sigue LKW-4 en tiempo real con AllMySat

Download on the App Store